Location: Unspecified
(0.0000°N, 0.0000°E)
Time: 15:12:13
(UTC+00:00)

ISS - Visible Passes

Search period start: 19 November 2018 00:00
Search period end: 29 November 2018 00:00
Orbit: 401 x 408 km, 51.6° (Epoch: 20 November)

Date Brightness Start Highest point End Pass type
(mag) Time Alt. Az. Time Alt. Az. Time Alt. Az.
19 Nov -1.0 18:30:09 10° W 18:31:50 13° NW 18:33:31 10° NNW visible
20 Nov -0.9 04:28:25 10° NE 04:29:27 11° NE 04:30:28 10° ENE visible
21 Nov -3.7 05:10:27 10° NW 05:13:40 61° SW 05:16:56 10° SSE visible
22 Nov -2.8 04:20:56 35° NNE 04:21:37 41° NE 04:24:44 10° SE visible
23 Nov -0.3 03:31:34 10° E 03:31:34 10° E 03:31:36 10° E visible
23 Nov -1.8 05:04:17 12° W 05:05:50 15° SW 05:07:51 10° SSW visible
24 Nov -2.3 04:14:50 29° S 04:14:50 29° S 04:16:50 10° SSE visible
